GEFSNE_prec_meanprecacc_024.txt.gz
Total_Precipitation_Accumulation
0.48 0.41 0.30 0.30 0.33 0.34 0.40 0.44 0.43 0.44 0.52 0.46 0.19 0.05 0.02 0.03 0.02 0.01 0.01 0.01 0.01 0.01 0.01 0.01 0.01 0.01 0.02 0.01 0.00 0.00 0.00 0.00 0.00 0.00 0.00 0.00 0.00 0.00
0.46 0.40 0.34 0.35 0.39 0.41 0.46 0.48 0.53 0.58 0.58 0.55 0.38 0.15 0.09 0.04 0.02 0.02 0.02 0.01 0.00 0.00 0.00 0.00 0.00 0.00 0.00 0.00 0.00 0.00 0.00 0.00 0.00 0.00 0.00 0.00 0.00 0.00
0.31 0.31 0.33 0.37 0.41 0.44 0.46 0.47 0.59 0.71 0.72 0.74 0.62 0.42 0.26 0.13 0.05 0.04 0.02 0.01 0.00 0.00 0.00 0.00 0.00 0.00 0.00 0.00 0.00 0.00 0.00 0.00 0.00 0.00 0.00 0.00 0.00 0.00
0.27 0.36 0.41 0.49 0.49 0.44 0.46 0.50 0.64 0.77 0.86 1.00 1.04 0.79 0.52 0.25 0.16 0.09 0.03 0.01 0.01 0.01 0.00 0.00 0.00 0.00 0.00 0.00 0.00 0.00 0.00 0.00 0.00 0.00 0.00 0.00 0.00 0.00
0.24 0.35 0.40 0.41 0.43 0.44 0.49 0.54 0.59 0.68 0.76 0.88 1.01 0.84 0.65 0.38 0.32 0.23 0.12 0.11 0.05 0.04 0.01 0.00 0.00 0.00 0.00 0.00 0.00 0.00 0.00 0.00 0.00 0.00 0.00 0.00 0.00 0.00
0.15 0.22 0.27 0.28 0.33 0.36 0.39 0.47 0.53 0.53 0.55 0.62 0.74 0.78 0.81 0.70 0.60 0.50 0.39 0.29 0.19 0.10 0.09 0.03 0.02 0.01 0.01 0.01 0.00 0.01 0.00 0.00 0.00 0.00 0.00 0.00 0.00 0.00
0.09 0.10 0.10 0.12 0.15 0.19 0.24 0.33 0.40 0.47 0.51 0.55 0.65 0.73 0.78 0.78 0.69 0.64 0.52 0.45 0.35 0.28 0.30 0.19 0.15 0.13 0.08 0.04 0.03 0.02 0.01 0.01 0.01 0.00 0.00 0.00 0.00 0.00
0.05 0.05 0.04 0.04 0.05 0.08 0.10 0.13 0.18 0.28 0.42 0.55 0.64 0.73 0.72 0.65 0.72 0.67 0.61 0.59 0.53 0.44 0.48 0.45 0.42 0.38 0.28 0.17 0.11 0.07 0.04 0.03 0.02 0.01 0.01 0.00 0.00 0.00
0.01 0.02 0.01 0.00 0.01 0.03 0.06 0.11 0.11 0.11 0.15 0.35 0.48 0.51 0.48 0.40 0.53 0.67 0.61 0.58 0.58 0.43 0.46 0.54 0.55 0.53 0.41 0.33 0.23 0.12 0.08 0.07 0.06 0.04 0.03 0.02 0.02 0.01
0.00 0.00 0.00 0.00 0.00 0.00 0.03 0.07 0.05 0.03 0.05 0.13 0.16 0.16 0.18 0.22 0.29 0.43 0.52 0.46 0.44 0.41 0.42 0.54 0.56 0.60 0.51 0.39 0.27 0.15 0.10 0.09 0.09 0.08 0.07 0.06 0.04 0.03
0.00 0.00 0.00 0.00 0.00 0.00 0.03 0.06 0.02 0.01 0.01 0.02 0.03 0.06 0.08 0.10 0.14 0.21 0.30 0.41 0.54 0.48 0.37 0.51 0.54 0.60 0.69 0.54 0.35 0.20 0.12 0.11 0.10 0.10 0.09 0.08 0.05 0.04
0.00 0.00 0.00 0.00 0.00 0.00 0.01 0.03 0.03 0.01 0.01 0.00 0.00 0.00 0.01 0.03 0.05 0.07 0.12 0.23 0.38 0.40 0.27 0.30 0.42 0.57 0.69 0.57 0.36 0.22 0.15 0.14 0.13 0.10 0.09 0.07 0.06 0.05
0.00 0.00 0.00 0.00 0.00 0.00 0.00 0.00 0.00 0.00 0.00 0.00 0.01 0.01 0.01 0.00 0.00 0.01 0.02 0.07 0.14 0.16 0.16 0.19 0.22 0.30 0.43 0.44 0.34 0.20 0.15 0.14 0.13 0.11 0.07 0.05 0.06 0.09
0.01 0.00 0.00 0.00 0.00 0.00 0.00 0.00 0.00 0.00 0.00 0.00 0.00 0.00 0.00 0.00 0.00 0.00 0.00 0.01 0.03 0.06 0.07 0.10 0.12 0.14 0.17 0.21 0.18 0.15 0.13 0.14 0.12 0.10 0.08 0.07 0.08 0.10
0.00 0.00 0.00 0.00 0.00 0.00 0.00 0.00 0.00 0.00 0.00 0.00 0.00 0.00 0.00 0.00 0.00 0.00 0.00 0.00 0.00 0.01 0.01 0.02 0.03 0.04 0.05 0.07 0.06 0.04 0.03 0.04 0.06 0.04 0.06 0.07 0.07 0.08
0.01 0.01 0.00 0.00 0.00 0.00 0.00 0.00 0.00 0.00 0.00 0.00 0.00 0.00 0.00 0.00 0.00 0.00 0.00 0.01 0.00 0.00 0.00 0.00 0.01 0.01 0.01 0.01 0.01 0.01 0.00 0.00 0.02 0.07 0.10 0.09 0.05 0.06
0.02 0.02 0.01 0.01 0.01 0.00 0.00 0.00 0.00 0.00 0.00 0.00 0.00 0.00 0.00 0.00 0.00 0.00 0.00 0.00 0.00 0.00 0.00 0.00 0.00 0.00 0.00 0.00 0.00 0.00 0.00 0.00 0.01 0.04 0.08 0.10 0.06 0.06
0.05 0.05 0.05 0.03 0.02 0.01 0.01 0.00 0.00 0.00 0.00 0.00 0.00 0.00 0.00 0.00 0.00 0.00 0.00 0.00 0.00 0.00 0.00 0.00 0.00 0.00 0.00 0.00 0.00 0.00 0.00 0.00 0.00 0.00 0.01 0.03 0.05 0.10
0.06 0.09 0.09 0.07 0.04 0.02 0.01 0.01 0.01 0.01 0.01 0.01 0.01 0.01 0.01 0.01 0.01 0.01 0.01 0.01 0.01 0.00 0.00 0.00 0.00 0.00 0.00 0.01 0.00 0.00 0.00 0.00 0.00 0.00 0.00 0.00 0.01 0.02
0.04 0.08 0.11 0.10 0.07 0.05 0.03 0.02 0.01 0.01 0.01 0.01 0.01 0.01 0.01 0.01 0.01 0.01 0.01 0.01 0.01 0.00 0.00 0.00 0.00 0.00 0.00 0.00 0.00 0.00 0.00 0.00 0.00 0.00 0.00 0.00 0.00 0.00
0.02 0.03 0.05 0.06 0.06 0.06 0.05 0.04 0.03 0.03 0.02 0.02 0.02 0.02 0.02 0.02 0.02 0.02 0.02 0.02 0.02 0.01 0.01 0.01 0.01 0.00 0.00 0.00 0.00 0.00 0.00 0.00 0.00 0.00 0.00 0.00 0.00 0.00
0.00 0.01 0.01 0.02 0.03 0.04 0.04 0.04 0.03 0.03 0.04 0.04 0.03 0.03 0.03 0.03 0.03 0.02 0.01 0.02 0.02 0.02 0.02 0.02 0.01 0.00 0.00 0.00 0.00 0.00 0.00 0.00 0.00 0.00 0.00 0.00 0.00 0.00
0.00 0.00 0.01 0.01 0.01 0.02 0.02 0.02 0.03 0.03 0.03 0.03 0.03 0.03 0.03 0.02 0.02 0.02 0.01 0.02 0.03 0.03 0.03 0.02 0.02 0.01 0.01 0.01 0.00 0.00 0.00 0.00 0.00 0.00 0.00 0.00 0.00 0.00

GEFSNE_prec_meanprecacc_030.txt.gz
Total_Precipitation_Accumulation
0.58 0.51 0.40 0.39 0.43 0.46 0.54 0.60 0.53 0.48 0.56 0.51 0.24 0.09 0.07 0.07 0.06 0.03 0.02 0.01 0.01 0.01 0.01 0.03 0.04 0.06 0.10 0.12 0.14 0.11 0.08 0.06 0.05 0.03 0.01 0.01 0.00 0.01
0.50 0.45 0.40 0.40 0.45 0.48 0.55 0.61 0.66 0.65 0.63 0.61 0.45 0.22 0.14 0.12 0.07 0.04 0.03 0.01 0.00 0.00 0.00 0.01 0.02 0.03 0.04 0.05 0.06 0.05 0.03 0.02 0.01 0.01 0.00 0.00 0.00 0.00
0.33 0.33 0.35 0.40 0.44 0.47 0.50 0.53 0.67 0.80 0.77 0.83 0.73 0.54 0.36 0.23 0.14 0.08 0.04 0.01 0.00 0.00 0.00 0.00 0.01 0.01 0.01 0.02 0.02 0.01 0.01 0.00 0.00 0.00 0.00 0.00 0.00 0.00
0.28 0.36 0.42 0.49 0.50 0.45 0.47 0.53 0.68 0.85 0.93 1.08 1.17 0.91 0.62 0.37 0.27 0.15 0.07 0.03 0.01 0.01 0.01 0.00 0.00 0.00 0.00 0.00 0.00 0.00 0.00 0.00 0.00 0.00 0.00 0.00 0.00 0.00
0.24 0.36 0.40 0.41 0.44 0.44 0.49 0.54 0.61 0.72 0.82 0.96 1.14 0.97 0.76 0.51 0.48 0.34 0.18 0.14 0.07 0.06 0.03 0.01 0.00 0.00 0.00 0.00 0.00 0.00 0.00 0.00 0.00 0.00 0.00 0.00 0.00 0.00
0.16 0.23 0.27 0.28 0.33 0.36 0.39 0.47 0.53 0.56 0.61 0.70 0.85 0.93 0.95 0.86 0.77 0.62 0.48 0.35 0.23 0.12 0.11 0.05 0.03 0.02 0.01 0.01 0.00 0.01 0.00 0.00 0.00 0.00 0.00 0.00 0.00 0.00
0.09 0.11 0.10 0.12 0.15 0.19 0.24 0.33 0.41 0.48 0.54 0.62 0.76 0.90 0.99 1.00 0.89 0.84 0.69 0.58 0.41 0.32 0.36 0.24 0.19 0.15 0.09 0.04 0.03 0.03 0.02 0.01 0.01 0.01 0.00 0.00 0.00 0.00
0.05 0.05 0.04 0.04 0.05 0.08 0.10 0.13 0.19 0.29 0.44 0.60 0.74 0.90 0.95 0.92 1.01 0.95 0.85 0.77 0.64 0.51 0.54 0.55 0.52 0.46 0.33 0.19 0.12 0.07 0.05 0.04 0.03 0.02 0.01 0.01 0.01 0.01
0.01 0.02 0.01 0.00 0.01 0.03 0.06 0.11 0.11 0.11 0.16 0.38 0.54 0.61 0.62 0.59 0.77 0.95 0.87 0.79 0.75 0.56 0.55 0.64 0.68 0.66 0.48 0.37 0.25 0.13 0.09 0.08 0.06 0.05 0.04 0.03 0.03 0.02
0.00 0.00 0.00 0.00 0.00 0.01 0.03 0.08 0.05 0.03 0.06 0.14 0.18 0.19 0.24 0.33 0.45 0.66 0.79 0.71 0.65 0.56 0.53 0.64 0.67 0.69 0.60 0.44 0.29 0.17 0.11 0.10 0.10 0.10 0.08 0.08 0.06 0.04
0.00 0.00 0.00 0.00 0.00 0.00 0.04 0.07 0.03 0.01 0.01 0.02 0.03 0.06 0.10 0.13 0.19 0.30 0.44 0.61 0.74 0.66 0.51 0.62 0.67 0.72 0.80 0.64 0.41 0.23 0.14 0.12 0.12 0.12 0.11 0.10 0.07 0.06
0.00 0.00 0.00 0.00 0.00 0.00 0.02 0.04 0.03 0.02 0.01 0.01 0.01 0.01 0.02 0.03 0.06 0.10 0.18 0.32 0.50 0.53 0.38 0.40 0.54 0.75 0.88 0.73 0.48 0.30 0.20 0.16 0.14 0.12 0.10 0.08 0.07 0.06
0.00 0.00 0.00 0.00 0.00 0.00 0.00 0.00 0.00 0.00 0.00 0.01 0.01 0.02 0.01 0.01 0.01 0.01 0.03 0.10 0.19 0.24 0.25 0.27 0.31 0.43 0.63 0.69 0.58 0.40 0.29 0.22 0.17 0.13 0.09 0.06 0.07 0.09
0.01 0.00 0.00 0.00 0.00 0.00 0.00 0.00 0.00 0.00 0.00 0.00 0.00 0.01 0.01 0.01 0.01 0.00 0.01 0.02 0.04 0.08 0.10 0.15 0.18 0.23 0.29 0.37 0.39 0.39 0.35 0.29 0.21 0.16 0.12 0.10 0.10 0.11
0.01 0.00 0.00 0.00 0.00 0.00 0.00 0.00 0.00 0.00 0.00 0.00 0.01 0.00 0.00 0.00 0.00 0.00 0.00 0.01 0.01 0.01 0.02 0.04 0.06 0.09 0.12 0.16 0.19 0.20 0.19 0.18 0.16 0.12 0.12 0.12 0.11 0.11
0.01 0.01 0.00 0.00 0.00 0.00 0.00 0.00 0.00 0.00 0.00 0.01 0.02 0.02 0.01 0.00 0.00 0.01 0.01 0.01 0.01 0.00 0.00 0.01 0.02 0.04 0.06 0.07 0.07 0.07 0.08 0.07 0.08 0.12 0.14 0.13 0.08 0.08
0.03 0.02 0.02 0.02 0.02 0.01 0.01 0.00 0.00 0.01 0.00 0.00 0.01 0.01 0.02 0.01 0.01 0.01 0.01 0.01 0.01 0.01 0.00 0.00 0.00 0.01 0.01 0.02 0.03 0.03 0.03 0.03 0.04 0.05 0.10 0.12 0.07 0.07
0.05 0.06 0.06 0.04 0.03 0.03 0.02 0.02 0.02 0.01 0.01 0.01 0.02 0.02 0.02 0.03 0.02 0.02 0.01 0.02 0.02 0.02 0.01 0.01 0.00 0.00 0.00 0.01 0.02 0.01 0.01 0.01 0.01 0.01 0.02 0.04 0.05 0.10
0.06 0.09 0.10 0.08 0.06 0.04 0.03 0.02 0.03 0.03 0.03 0.03 0.03 0.04 0.04 0.04 0.04 0.04 0.03 0.04 0.04 0.03 0.03 0.03 0.02 0.01 0.01 0.01 0.00 0.00 0.00 0.00 0.00 0.00 0.00 0.01 0.01 0.02
0.04 0.08 0.11 0.11 0.08 0.06 0.04 0.02 0.02 0.02 0.02 0.03 0.04 0.04 0.05 0.05 0.06 0.05 0.04 0.04 0.05 0.06 0.06 0.05 0.04 0.03 0.01 0.01 0.01 0.00 0.00 0.00 0.00 0.00 0.00 0.00 0.00 0.00
0.02 0.03 0.05 0.06 0.07 0.07 0.06 0.04 0.04 0.03 0.03 0.03 0.04 0.05 0.06 0.07 0.08 0.09 0.08 0.07 0.06 0.06 0.08 0.09 0.07 0.05 0.04 0.03 0.02 0.01 0.00 0.00 0.00 0.00 0.00 0.00 0.00 0.00
0.01 0.01 0.02 0.02 0.03 0.04 0.05 0.04 0.04 0.04 0.04 0.04 0.04 0.05 0.06 0.07 0.09 0.10 0.11 0.10 0.09 0.07 0.09 0.09 0.08 0.06 0.06 0.06 0.04 0.02 0.01 0.01 0.00 0.00 0.00 0.00 0.00 0.00
0.00 0.00 0.01 0.01 0.01 0.02 0.02 0.03 0.03 0.03 0.03 0.03 0.03 0.04 0.05 0.05 0.06 0.07 0.09 0.09 0.09 0.09 0.09 0.09 0.11 0.11 0.09 0.09 0.08 0.05 0.03 0.01 0.01 0.01 0.00 0.00 0.00 0.00

GEFSNE_prec_meanprecacc_036.txt.gz
Total_Precipitation_Accumulation
0.58 0.52 0.42 0.41 0.47 0.52 0.62 0.68 0.60 0.53 0.58 0.52 0.25 0.10 0.07 0.09 0.09 0.05 0.03 0.02 0.01 0.01 0.01 0.04 0.05 0.09 0.16 0.23 0.30 0.33 0.29 0.23 0.18 0.14 0.10 0.06 0.05 0.03
0.50 0.46 0.41 0.42 0.47 0.51 0.58 0.66 0.72 0.71 0.65 0.63 0.46 0.23 0.16 0.14 0.11 0.07 0.04 0.02 0.00 0.00 0.00 0.01 0.04 0.06 0.09 0.14 0.19 0.22 0.21 0.17 0.13 0.12 0.09 0.06 0.05 0.04
0.33 0.33 0.35 0.40 0.44 0.47 0.51 0.54 0.69 0.82 0.79 0.84 0.74 0.55 0.37 0.25 0.17 0.12 0.07 0.02 0.00 0.00 0.00 0.01 0.02 0.04 0.07 0.10 0.14 0.17 0.17 0.15 0.11 0.08 0.06 0.04 0.02 0.02
0.28 0.36 0.42 0.50 0.50 0.45 0.47 0.53 0.69 0.85 0.94 1.09 1.18 0.92 0.64 0.40 0.31 0.20 0.11 0.05 0.02 0.02 0.01 0.01 0.02 0.02 0.04 0.07 0.10 0.13 0.13 0.12 0.09 0.05 0.03 0.02 0.01 0.01
0.24 0.36 0.40 0.41 0.44 0.44 0.49 0.54 0.61 0.72 0.83 0.97 1.14 0.98 0.78 0.54 0.52 0.39 0.24 0.18 0.09 0.07 0.03 0.01 0.01 0.01 0.02 0.03 0.05 0.07 0.07 0.06 0.04 0.02 0.01 0.01 0.00 0.00
0.16 0.23 0.27 0.28 0.33 0.36 0.39 0.47 0.53 0.56 0.61 0.70 0.86 0.94 0.96 0.89 0.82 0.70 0.57 0.42 0.28 0.15 0.13 0.05 0.03 0.02 0.02 0.02 0.02 0.03 0.03 0.03 0.02 0.01 0.01 0.00 0.00 0.00
0.09 0.11 0.10 0.12 0.15 0.19 0.24 0.33 0.41 0.49 0.55 0.62 0.76 0.90 1.00 1.04 0.96 0.94 0.82 0.69 0.50 0.40 0.41 0.27 0.21 0.16 0.09 0.04 0.03 0.03 0.03 0.02 0.02 0.01 0.00 0.00 0.00 0.00
0.05 0.05 0.04 0.04 0.05 0.08 0.10 0.13 0.19 0.29 0.44 0.61 0.74 0.91 0.96 0.95 1.07 1.05 0.98 0.91 0.78 0.66 0.66 0.65 0.58 0.49 0.35 0.20 0.13 0.07 0.05 0.04 0.03 0.02 0.01 0.01 0.01 0.01
0.01 0.02 0.01 0.00 0.01 0.03 0.06 0.11 0.11 0.11 0.16 0.38 0.54 0.62 0.63 0.62 0.82 1.02 0.97 0.93 0.95 0.82 0.77 0.83 0.83 0.75 0.54 0.41 0.27 0.14 0.10 0.08 0.07 0.05 0.04 0.03 0.03 0.03
0.00 0.00 0.00 0.00 0.00 0.01 0.03 0.08 0.05 0.03 0.06 0.14 0.18 0.19 0.24 0.34 0.49 0.74 0.92 0.86 0.86 0.84 0.85 0.95 0.93 0.91 0.75 0.54 0.36 0.20 0.13 0.11 0.11 0.10 0.09 0.08 0.07 0.05
0.00 0.00 0.00 0.00 0.00 0.00 0.04 0.07 0.03 0.01 0.01 0.02 0.04 0.06 0.10 0.13 0.21 0.35 0.55 0.81 1.01 0.99 0.86 0.97 0.97 0.97 1.01 0.80 0.53 0.31 0.19 0.15 0.13 0.13 0.12 0.11 0.08 0.06
0.00 0.00 0.00 0.00 0.00 0.00 0.02 0.04 0.03 0.02 0.01 0.01 0.01 0.01 0.02 0.04 0.07 0.12 0.24 0.45 0.71 0.84 0.80 0.86 0.98 1.14 1.20 0.95 0.63 0.42 0.27 0.22 0.18 0.13 0.11 0.09 0.07 0.06
0.00 0.00 0.00 0.00 0.00 0.00 0.00 0.00 0.00 0.00 0.01 0.01 0.02 0.02 0.02 0.01 0.01 0.02 0.04 0.13 0.25 0.35 0.43 0.56 0.67 0.82 1.01 1.02 0.83 0.57 0.39 0.28 0.22 0.17 0.11 0.08 0.08 0.10
0.01 0.00 0.00 0.00 0.00 0.00 0.00 0.00 0.00 0.00 0.00 0.01 0.01 0.01 0.02 0.01 0.01 0.01 0.02 0.03 0.06 0.11 0.18 0.29 0.40 0.50 0.60 0.68 0.68 0.62 0.53 0.41 0.30 0.23 0.18 0.17 0.15 0.15
0.01 0.01 0.01 0.01 0.00 0.00 0.00 0.00 0.00 0.00 0.00 0.01 0.01 0.01 0.01 0.01 0.01 0.01 0.01 0.01 0.02 0.03 0.05 0.09 0.16 0.25 0.32 0.41 0.46 0.44 0.39 0.34 0.29 0.23 0.22 0.23 0.20 0.18
0.01 0.01 0.01 0.01 0.01 0.01 0.01 0.01 0.00 0.00 0.00 0.01 0.02 0.03 0.02 0.01 0.01 0.01 0.01 0.02 0.02 0.01 0.01 0.03 0.06 0.11 0.17 0.22 0.25 0.29 0.29 0.29 0.30 0.31 0.28 0.26 0.21 0.18
0.03 0.02 0.02 0.02 0.02 0.02 0.02 0.01 0.01 0.01 0.01 0.01 0.02 0.02 0.03 0.03 0.03 0.02 0.02 0.02 0.02 0.02 0.02 0.01 0.02 0.03 0.05 0.09 0.14 0.19 0.23 0.24 0.25 0.26 0.27 0.26 0.20 0.16
0.05 0.06 0.06 0.05 0.03 0.03 0.02 0.02 0.02 0.02 0.02 0.02 0.03 0.03 0.03 0.03 0.03 0.03 0.03 0.03 0.02 0.03 0.03 0.02 0.02 0.02 0.03 0.04 0.06 0.09 0.12 0.18 0.19 0.16 0.15 0.16 0.15 0.17
0.06 0.09 0.10 0.08 0.06 0.04 0.03 0.03 0.03 0.03 0.03 0.03 0.04 0.05 0.05 0.05 0.05 0.04 0.05 0.05 0.06 0.06 0.06 0.06 0.04 0.03 0.05 0.05 0.03 0.04 0.05 0.07 0.09 0.09 0.08 0.09 0.09 0.07
0.04 0.08 0.11 0.11 0.08 0.06 0.04 0.03 0.03 0.03 0.03 0.03 0.05 0.05 0.05 0.06 0.07 0.06 0.05 0.05 0.07 0.09 0.11 0.11 0.09 0.06 0.05 0.05 0.04 0.02 0.02 0.02 0.04 0.04 0.05 0.05 0.04 0.02
0.02 0.03 0.05 0.06 0.07 0.07 0.06 0.05 0.04 0.04 0.03 0.03 0.04 0.05 0.06 0.07 0.09 0.10 0.10 0.08 0.07 0.07 0.12 0.15 0.14 0.09 0.07 0.06 0.07 0.05 0.03 0.02 0.02 0.02 0.02 0.03 0.03 0.02
0.01 0.01 0.02 0.02 0.03 0.04 0.05 0.04 0.04 0.04 0.04 0.04 0.04 0.05 0.06 0.07 0.09 0.11 0.12 0.12 0.11 0.09 0.11 0.13 0.13 0.12 0.11 0.11 0.10 0.08 0.06 0.04 0.03 0.02 0.01 0.01 0.01 0.01
0.00 0.00 0.01 0.01 0.01 0.02 0.02 0.03 0.03 0.03 0.03 0.03 0.03 0.04 0.05 0.05 0.06 0.07 0.09 0.09 0.10 0.11 0.11 0.13 0.14 0.16 0.17 0.17 0.17 0.14 0.10 0.08 0.06 0.04 0.02 0.01 0.00 0.00

GEFSNE_prec_meanprecacc_042.txt.gz
Total_Precipitation_Accumulation
0.60 0.54 0.44 0.44 0.50 0.55 0.65 0.72 0.64 0.54 0.59 0.53 0.27 0.11 0.09 0.10 0.10 0.06 0.04 0.04 0.03 0.03 0.03 0.04 0.06 0.09 0.16 0.24 0.33 0.41 0.44 0.41 0.36 0.27 0.20 0.14 0.11 0.09
0.52 0.47 0.42 0.43 0.48 0.52 0.59 0.68 0.76 0.75 0.67 0.64 0.48 0.24 0.17 0.15 0.12 0.08 0.06 0.04 0.03 0.02 0.02 0.02 0.04 0.06 0.11 0.17 0.24 0.30 0.34 0.33 0.31 0.28 0.23 0.17 0.13 0.10
0.34 0.34 0.36 0.41 0.45 0.48 0.52 0.54 0.70 0.85 0.81 0.84 0.74 0.56 0.39 0.28 0.21 0.16 0.10 0.05 0.04 0.03 0.02 0.02 0.03 0.05 0.09 0.13 0.20 0.26 0.30 0.31 0.29 0.27 0.23 0.18 0.13 0.09
0.28 0.37 0.42 0.50 0.51 0.46 0.48 0.54 0.70 0.87 0.95 1.10 1.19 0.94 0.67 0.45 0.37 0.25 0.14 0.08 0.06 0.05 0.03 0.02 0.02 0.03 0.06 0.10 0.17 0.25 0.30 0.31 0.30 0.27 0.23 0.17 0.12 0.10
0.24 0.36 0.41 0.42 0.44 0.45 0.50 0.55 0.62 0.73 0.84 0.98 1.16 1.00 0.82 0.60 0.58 0.45 0.29 0.24 0.13 0.10 0.06 0.03 0.02 0.02 0.04 0.08 0.14 0.21 0.27 0.31 0.29 0.27 0.23 0.18 0.13 0.09
0.16 0.23 0.28 0.28 0.33 0.37 0.39 0.47 0.54 0.56 0.61 0.71 0.87 0.95 0.99 0.93 0.87 0.75 0.63 0.50 0.37 0.22 0.18 0.08 0.05 0.03 0.04 0.06 0.10 0.17 0.23 0.28 0.28 0.27 0.23 0.17 0.13 0.09
0.10 0.11 0.10 0.12 0.15 0.19 0.24 0.33 0.41 0.49 0.55 0.63 0.77 0.91 1.01 1.06 0.99 0.98 0.87 0.78 0.62 0.53 0.53 0.35 0.25 0.18 0.11 0.08 0.09 0.14 0.20 0.24 0.25 0.25 0.22 0.17 0.12 0.07
0.05 0.05 0.04 0.04 0.05 0.08 0.10 0.13 0.19 0.29 0.44 0.61 0.75 0.92 0.98 0.96 1.09 1.07 1.03 0.99 0.91 0.82 0.83 0.80 0.70 0.57 0.40 0.23 0.17 0.14 0.14 0.16 0.18 0.17 0.16 0.13 0.09 0.06
0.01 0.02 0.01 0.00 0.01 0.03 0.06 0.11 0.11 0.11 0.16 0.38 0.55 0.63 0.64 0.63 0.83 1.03 1.01 1.00 1.07 1.01 0.99 1.05 1.01 0.90 0.65 0.48 0.33 0.19 0.16 0.15 0.14 0.12 0.10 0.08 0.07 0.06
0.00 0.00 0.00 0.00 0.00 0.01 0.03 0.08 0.05 0.04 0.06 0.14 0.18 0.20 0.25 0.34 0.49 0.75 0.95 0.93 0.99 1.02 1.05 1.21 1.18 1.13 0.94 0.71 0.49 0.28 0.19 0.17 0.17 0.14 0.11 0.10 0.08 0.06
0.00 0.00 0.00 0.00 0.00 0.00 0.04 0.07 0.04 0.01 0.01 0.02 0.04 0.06 0.10 0.13 0.21 0.36 0.58 0.87 1.13 1.16 1.06 1.22 1.29 1.31 1.33 1.06 0.76 0.52 0.33 0.24 0.19 0.16 0.14 0.12 0.09 0.07
0.00 0.00 0.00 0.00 0.00 0.00 0.02 0.04 0.03 0.02 0.02 0.02 0.02 0.02 0.04 0.05 0.07 0.14 0.26 0.49 0.79 0.96 0.97 1.10 1.32 1.54 1.66 1.38 0.98 0.71 0.54 0.43 0.33 0.22 0.15 0.11 0.09 0.07
0.00 0.00 0.00 0.00 0.00 0.00 0.00 0.00 0.00 0.00 0.01 0.02 0.03 0.03 0.03 0.03 0.03 0.04 0.07 0.16 0.32 0.44 0.54 0.72 0.93 1.19 1.51 1.58 1.40 1.07 0.80 0.59 0.44 0.34 0.24 0.16 0.13 0.12
0.01 0.00 0.00 0.00 0.00 0.00 0.00 0.00 0.00 0.00 0.01 0.02 0.02 0.02 0.03 0.02 0.02 0.02 0.04 0.06 0.12 0.19 0.26 0.39 0.55 0.74 0.91 1.06 1.15 1.18 1.13 0.95 0.71 0.51 0.37 0.30 0.24 0.21
0.01 0.01 0.01 0.01 0.00 0.00 0.00 0.00 0.00 0.00 0.01 0.01 0.02 0.02 0.02 0.01 0.02 0.03 0.04 0.05 0.06 0.07 0.09 0.16 0.26 0.39 0.51 0.66 0.78 0.83 0.86 0.86 0.79 0.68 0.58 0.48 0.37 0.30
0.02 0.01 0.01 0.01 0.01 0.01 0.01 0.01 0.00 0.01 0.01 0.01 0.03 0.03 0.03 0.02 0.02 0.03 0.04 0.06 0.07 0.07 0.06 0.08 0.13 0.22 0.31 0.40 0.47 0.56 0.65 0.71 0.76 0.78 0.70 0.63 0.51 0.41
0.03 0.02 0.02 0.02 0.02 0.02 0.02 0.01 0.01 0.01 0.01 0.02 0.02 0.03 0.04 0.04 0.04 0.04 0.04 0.07 0.09 0.10 0.08 0.07 0.08 0.12 0.13 0.18 0.29 0.39 0.47 0.54 0.62 0.71 0.75 0.69 0.55 0.44
0.05 0.06 0.06 0.05 0.04 0.03 0.03 0.02 0.03 0.02 0.02 0.03 0.04 0.04 0.04 0.04 0.04 0.04 0.04 0.05 0.07 0.09 0.10 0.08 0.08 0.11 0.14 0.11 0.12 0.19 0.28 0.37 0.42 0.46 0.52 0.56 0.51 0.44
0.06 0.09 0.10 0.08 0.06 0.04 0.03 0.03 0.04 0.04 0.04 0.04 0.06 0.07 0.06 0.06 0.07 0.06 0.06 0.07 0.08 0.09 0.11 0.10 0.09 0.10 0.15 0.18 0.12 0.09 0.13 0.20 0.25 0.26 0.30 0.36 0.38 0.31
0.04 0.08 0.11 0.11 0.08 0.06 0.04 0.03 0.03 0.03 0.03 0.04 0.06 0.06 0.06 0.07 0.08 0.08 0.06 0.06 0.08 0.11 0.15 0.15 0.12 0.10 0.11 0.15 0.13 0.09 0.06 0.10 0.16 0.20 0.20 0.20 0.19 0.16
0.02 0.03 0.05 0.06 0.07 0.07 0.06 0.05 0.04 0.04 0.03 0.03 0.04 0.06 0.06 0.08 0.09 0.11 0.10 0.09 0.08 0.09 0.14 0.18 0.16 0.12 0.12 0.15 0.17 0.15 0.10 0.06 0.08 0.11 0.14 0.15 0.14 0.11
0.01 0.01 0.02 0.02 0.03 0.04 0.05 0.04 0.04 0.04 0.04 0.04 0.04 0.05 0.06 0.08 0.10 0.11 0.12 0.12 0.11 0.11 0.13 0.15 0.15 0.15 0.16 0.19 0.19 0.18 0.15 0.12 0.08 0.04 0.05 0.06 0.08 0.08
0.00 0.00 0.01 0.01 0.01 0.02 0.02 0.03 0.03 0.03 0.03 0.03 0.03 0.04 0.05 0.06 0.06 0.08 0.09 0.10 0.11 0.11 0.12 0.14 0.16 0.17 0.19 0.22 0.25 0.24 0.19 0.16 0.14 0.11 0.07 0.04 0.02 0.02

GEFSNE_prec_meanprecacc_048.txt.gz
Total_Precipitation_Accumulation
0.90 0.79 0.65 0.61 0.62 0.65 0.73 0.78 0.68 0.58 0.63 0.58 0.30 0.13 0.10 0.11 0.11 0.06 0.06 0.05 0.03 0.03 0.03 0.05 0.07 0.10 0.17 0.25 0.34 0.43 0.46 0.45 0.43 0.37 0.33 0.28 0.23 0.22
0.77 0.71 0.62 0.57 0.57 0.59 0.64 0.72 0.79 0.77 0.69 0.66 0.50 0.25 0.18 0.16 0.13 0.10 0.10 0.05 0.03 0.02 0.02 0.03 0.05 0.07 0.11 0.17 0.24 0.32 0.36 0.37 0.38 0.38 0.37 0.34 0.29 0.25
0.55 0.52 0.49 0.50 0.52 0.53 0.54 0.56 0.72 0.86 0.82 0.85 0.76 0.58 0.41 0.31 0.24 0.20 0.15 0.10 0.08 0.03 0.02 0.02 0.03 0.06 0.09 0.14 0.20 0.27 0.32 0.35 0.37 0.40 0.42 0.40 0.36 0.29
0.45 0.48 0.50 0.56 0.56 0.49 0.50 0.55 0.71 0.88 0.97 1.11 1.21 0.96 0.69 0.48 0.41 0.30 0.18 0.12 0.13 0.06 0.03 0.02 0.03 0.04 0.06 0.11 0.17 0.26 0.33 0.37 0.40 0.43 0.43 0.42 0.41 0.37
0.34 0.43 0.45 0.45 0.47 0.46 0.50 0.56 0.63 0.73 0.86 1.00 1.18 1.01 0.84 0.62 0.60 0.48 0.33 0.31 0.19 0.12 0.06 0.03 0.02 0.02 0.04 0.08 0.15 0.22 0.31 0.39 0.42 0.48 0.50 0.47 0.47 0.47
0.21 0.26 0.29 0.29 0.33 0.37 0.39 0.47 0.54 0.57 0.62 0.72 0.88 0.97 1.01 0.95 0.89 0.78 0.66 0.56 0.43 0.29 0.23 0.10 0.05 0.04 0.04 0.06 0.11 0.19 0.28 0.37 0.43 0.47 0.53 0.56 0.57 0.55
0.12 0.12 0.10 0.12 0.15 0.19 0.24 0.33 0.41 0.49 0.55 0.64 0.77 0.92 1.02 1.07 1.00 0.99 0.90 0.83 0.69 0.61 0.63 0.45 0.34 0.25 0.17 0.12 0.11 0.15 0.23 0.34 0.41 0.48 0.54 0.58 0.62 0.64
0.07 0.06 0.04 0.04 0.05 0.08 0.10 0.13 0.19 0.29 0.44 0.62 0.76 0.93 0.99 0.97 1.10 1.09 1.06 1.02 0.95 0.88 0.89 0.89 0.83 0.70 0.53 0.34 0.24 0.18 0.18 0.26 0.39 0.46 0.53 0.60 0.64 0.66
0.02 0.02 0.01 0.00 0.01 0.03 0.06 0.11 0.11 0.11 0.16 0.38 0.57 0.64 0.65 0.64 0.84 1.04 1.03 1.04 1.13 1.06 1.05 1.12 1.09 0.98 0.75 0.56 0.39 0.26 0.22 0.23 0.30 0.39 0.46 0.53 0.60 0.63
0.01 0.00 0.00 0.00 0.00 0.01 0.04 0.09 0.06 0.04 0.06 0.14 0.19 0.20 0.25 0.34 0.50 0.76 0.98 0.98 1.07 1.11 1.12 1.27 1.25 1.19 1.00 0.76 0.54 0.33 0.25 0.26 0.31 0.35 0.39 0.43 0.47 0.49
0.00 0.00 0.00 0.00 0.00 0.00 0.05 0.08 0.06 0.03 0.01 0.02 0.04 0.06 0.10 0.13 0.21 0.37 0.60 0.90 1.18 1.24 1.14 1.29 1.35 1.38 1.41 1.15 0.83 0.58 0.39 0.31 0.30 0.33 0.35 0.35 0.34 0.34
0.01 0.00 0.00 0.00 0.00 0.00 0.02 0.05 0.04 0.03 0.02 0.03 0.04 0.04 0.06 0.08 0.08 0.16 0.29 0.53 0.83 1.02 1.05 1.17 1.41 1.65 1.79 1.52 1.11 0.80 0.62 0.52 0.42 0.32 0.30 0.28 0.25 0.23
0.01 0.00 0.00 0.00 0.00 0.00 0.00 0.00 0.00 0.00 0.02 0.03 0.04 0.05 0.05 0.05 0.04 0.06 0.11 0.21 0.37 0.50 0.61 0.81 1.04 1.31 1.65 1.73 1.57 1.23 0.95 0.73 0.57 0.45 0.35 0.28 0.24 0.22
0.01 0.00 0.00 0.00 0.00 0.00 0.00 0.00 0.00 0.00 0.02 0.03 0.03 0.03 0.04 0.04 0.04 0.03 0.07 0.11 0.19 0.28 0.37 0.52 0.69 0.90 1.07 1.22 1.32 1.37 1.35 1.19 0.93 0.71 0.54 0.46 0.38 0.32
0.01 0.01 0.01 0.01 0.00 0.00 0.00 0.00 0.00 0.01 0.01 0.02 0.03 0.03 0.03 0.03 0.03 0.05 0.06 0.08 0.11 0.12 0.16 0.27 0.41 0.55 0.68 0.85 0.98 1.05 1.12 1.14 1.09 0.98 0.87 0.72 0.56 0.45
0.02 0.01 0.01 0.01 0.01 0.01 0.01 0.01 0.00 0.01 0.01 0.02 0.03 0.04 0.03 0.03 0.03 0.04 0.06 0.08 0.10 0.12 0.12 0.15 0.25 0.35 0.44 0.54 0.63 0.74 0.85 0.97 1.06 1.09 1.05 0.96 0.81 0.66
0.03 0.03 0.02 0.02 0.02 0.03 0.02 0.01 0.01 0.01 0.02 0.02 0.02 0.04 0.05 0.05 0.04 0.04 0.05 0.08 0.11 0.15 0.14 0.11 0.15 0.22 0.24 0.27 0.41 0.53 0.62 0.69 0.83 0.97 1.05 1.04 0.89 0.75
0.05 0.06 0.06 0.05 0.04 0.03 0.03 0.02 0.03 0.02 0.03 0.03 0.04 0.04 0.05 0.05 0.05 0.05 0.05 0.06 0.08 0.12 0.14 0.12 0.12 0.18 0.24 0.21 0.18 0.28 0.39 0.49 0.54 0.62 0.74 0.84 0.81 0.72
0.06 0.09 0.10 0.08 0.06 0.04 0.03 0.03 0.04 0.04 0.04 0.04 0.06 0.07 0.07 0.06 0.07 0.06 0.06 0.07 0.09 0.10 0.13 0.13 0.12 0.14 0.21 0.27 0.21 0.14 0.20 0.29 0.35 0.37 0.45 0.55 0.63 0.58
0.04 0.08 0.11 0.11 0.08 0.06 0.04 0.03 0.03 0.03 0.03 0.04 0.06 0.06 0.06 0.07 0.08 0.08 0.06 0.06 0.08 0.12 0.16 0.17 0.14 0.11 0.14 0.21 0.22 0.18 0.09 0.15 0.23 0.28 0.29 0.32 0.34 0.35
0.02 0.03 0.05 0.06 0.07 0.07 0.06 0.05 0.04 0.04 0.03 0.03 0.04 0.06 0.06 0.08 0.09 0.11 0.10 0.09 0.08 0.09 0.14 0.19 0.18 0.13 0.15 0.21 0.25 0.25 0.17 0.09 0.11 0.16 0.19 0.23 0.27 0.26
0.01 0.01 0.02 0.02 0.03 0.04 0.05 0.04 0.04 0.04 0.04 0.04 0.04 0.05 0.06 0.08 0.10 0.11 0.12 0.12 0.11 0.11 0.13 0.15 0.16 0.16 0.18 0.21 0.23 0.23 0.22 0.18 0.11 0.06 0.08 0.11 0.14 0.17
0.00 0.00 0.01 0.01 0.01 0.02 0.02 0.03 0.03 0.03 0.03 0.03 0.03 0.04 0.05 0.06 0.06 0.08 0.09 0.10 0.11 0.11 0.12 0.14 0.16 0.18 0.20 0.24 0.28 0.27 0.22 0.20 0.19 0.18 0.13 0.06 0.05 0.04